Flag for Greenland Weather past 2 weeks in Ilulissat, Greenland

Now
18 °F

Passing clouds.


Feels Like: 2 °F
Forecast: 18 / 23 °F
Wind: 17 mph from East

Location: Jacobshavn Lufthavn

Current Time: Oct 20, 2014 at 9:25:09 AM

Latest Report: Oct 20, 2014 at 8:50 AM


Visibility: N/A

Pressure: 30.09 "Hg

Humidity: 49%

Dew point: 1 °F

Location of IlulissatLocation

Historic Weather in Ilulissat — Graph

°F

Ilulissat temperature yesterday

Maximum temperature yesterday: 25 °F (at 8:50 AM)
Minimum temperature yesterday: 21 °F (at 12:50 AM)
Average temperature yesterday: 24 °F

Past Weeks' High & Low Weather Summary

 TemperatureHumidityPressure
High48 °F (Oct 10, 10:50 AM)100% (Oct 16, 7:50 PM)30.42 "Hg (Oct 16, 7:50 PM)
Low14 °F (Oct 6, 6:50 AM)32% (Oct 15, 10:50 AM)29.65 "Hg (Oct 18, 11:50 AM)
Average30 °F62%29.98 "Hg
* Reported Oct 5 7:50 AM — Oct 20 7:50 AM, Ilulissat, Weather by CustomWeather, © 2014

Note: Actual official high and low records may vary slightly from our data, if they occured in-between our weather recording intervals... More about our weather records

Advertising

Ilulissat weather history for previous 24 hours

 ConditionsComfort  
Time TempWeatherWind HumidityBarometerVisibility
7:50 AM
Oct 20
18 °FPartly cloudy.22 mph49%30.07 "HgN/A
6:50 AM18 °FPassing clouds.28 mph53%30.07 "HgN/A
5:50 AM18 °FPassing clouds.29 mph53%30.04 "HgN/A
4:50 AM19 °FOvercast.28 mph58%30.04 "Hg5 mi
3:50 AM21 °FOvercast.23 mph58%30.04 "HgN/A
2:50 AM21 °FOvercast.21 mph58%30.04 "HgN/A
12:50 AM25 °FOvercast.16 mph50%30.04 "HgN/A
11:50 PM
Oct 19
25 °FOvercast.17 mph50%30.04 "HgN/A
10:50 PM25 °FOvercast.17 mph50%30.04 "HgN/A
9:50 PM25 °FSnow flurries. Mostly cloudy.17 mph54%30.01 "HgN/A
8:50 PM25 °FOvercast.20 mph50%30.01 "HgN/A
7:50 PM25 °FOvercast.20 mph54%30.01 "HgN/A
6:50 PM25 °FOvercast.17 mph59%30.01 "HgN/A
5:50 PM25 °FOvercast.12 mph59%30.01 "HgN/A
4:50 PM25 °FOvercast.7 mph59%29.98 "HgN/A
3:50 PM25 °FOvercast.6 mph63%29.98 "HgN/A
2:50 PM25 °FOvercast.No wind63%29.98 "HgN/A
1:50 PM23 °FOvercast.2 mph80%29.95 "HgN/A
12:50 PM23 °FOvercast.3 mph74%29.95 "HgN/A
11:50 AM25 °FPartly sunny.No wind63%29.95 "HgN/A
10:50 AM25 °FPartly sunny.3 mph59%29.92 "HgN/A
9:50 AM25 °FPartly sunny.1 mph54%29.92 "HgN/A
Weather by CustomWeather, © 2014

See weather overviewHow to use our weather pages